Weather in Panovo

Russia / Omsk Oblast     56°21′05″N   70°58′08″E
temp.,
°C
wind,
m/s
gust,
m/s
humid.,
%
clouds,
%
prec.,
mm/h
press.,
hPa
HPBL,
m
8 may, sat
sat800:00+11w34505 0.0 102042
03:00+10wsw34545 0.0 102043
06:00+9wsw34555 0.0 102143
09:00+16wsw45395 0.0 1020334
12:00+20wsw43315 0.0 10201444
15:00+22wsw32265 0.0 10182193
18:00+22ssw11255 0.0 10182350
21:00+17ssw223896 0.0 101711
9 may, sun
sun900:00+14ssw2243100 0.0 101815
03:00+13ene334782 0.0 101822
06:00+12e355483 0.0 101869
09:00+16e6855100 0.0 1018411
12:00+20e7842100 0.0 10191033
15:00+21e7835100 0.0 10182057
18:00+20ene783690 0.0 10192035
21:00+16ene51146100 0.0 1020395
10 may, mon
mon1000:00+13ene61344100 0.0 1020496
03:00+11ene51247100 0.0 1021415
06:00+9ne51056100 0.0 1022274
09:00+12ene694678 0.0 1023783
12:00+16ene67343 0.0 10231668
15:00+18ene57325 0.0 10222460
18:00+18ne563095 0.0 10212485
21:00+13e48505 0.0 1023211
11 may, tue
tue1100:00+9ene23595 0.0 102325
03:00+8ene22635 0.0 102315
06:00+9ne1263100 0.0 102349
09:00+14nw234622 0.0 1023534
12:00+16n34389 0.0 10222012
15:00+19nnw34325 0.0 10202215
18:00+20nnw2429100 0.0 10192376
21:00+15sse0142100 0.0 101911
12 may, wed
wed1200:00+12sse3652100 0.0 101886
03:00+11wnw3877100 0.0 1018230
06:00+11wnw3887100 0.1 1018264
09:00+13nw457690 0.8 1018393
12:00+16nw335895 1.4 10181140
15:00+16wnw2354100 1.3 10171355
18:00+15wnw3765100 1.6 1018444
21:00+13nnw61070100 0.4 1019486